Flag for Poland Weather past 2 weeks in Radom, Poland

Now
71 °F

Scattered clouds.


Feels Like: 77 °F
Forecast: 55 / 71 °F
Wind: 5 mph from Southeast

Location: Kielce

Current Time: Sep 19, 2014 at 4:34:20 PM

Latest Report: Sep 19, 2014 at 3:00 PM


Visibility: 14 mi

Pressure: 30.06 "Hg

Humidity: 50%

Dew point: 52 °F

Location of RadomLocation

Historic Weather in Radom — Graph

°F

Radom temperature yesterday

Maximum temperature yesterday: 72 °F (at 3:00 PM)
Minimum temperature yesterday: 43 °F (at 6:00 AM)
Average temperature yesterday: 56 °F

Past Weeks' High & Low Weather Summary

 TemperatureHumidityPressure
High78 °F (Sep 8, 3:00 PM)100% (Sep 8, 11:00 PM)30.22 "Hg (Sep 8, 11:00 PM)
Low43 °F (Sep 18, 6:00 AM)41% (Sep 18, 4:00 PM)29.92 "Hg (Sep 6, 6:00 PM)
Average62 °F77%30.07 "Hg
* Reported Sep 4 3:00 PM — Sep 19 3:00 PM, Radom, Weather by CustomWeather, © 2014

Note: Actual official high and low records may vary slightly from our data, if they occured in-between our weather recording intervals... More about our weather records

Advertising

Radom weather history for previous 24 hours

 ConditionsComfort  
Time TempWeatherWind HumidityBarometerVisibility
3:00 PM
Sep 19
71 °FScattered clouds.5 mph50%30.06 "Hg14 mi
2:00 PM71 °FPartly sunny.5 mph44%30.07 "Hg16 mi
1:00 PM71 °FPartly sunny.5 mph55%30.09 "Hg14 mi
12:00 PM69 °FScattered clouds.3 mph54%30.10 "Hg14 mi
11:00 AM64 °FPartly sunny.3 mph65%30.12 "Hg12 mi
10:00 AM62 °FOvercast.2 mph68%30.13 "Hg12 mi
9:00 AM58 °FPartly sunny.2 mph75%30.14 "Hg12 mi
8:00 AM55 °FOvercast.1 mph81%30.15 "Hg10 mi
7:00 AM51 °FOvercast.1 mph90%30.15 "Hg7 mi
5:00 AM49 °FOvercast.1 mph94%30.15 "Hg6 mi
2:00 AM51 °FPassing clouds.1 mph83%30.16 "Hg9 mi
11:00 PM
Sep 18
54 °FClear.1 mph74%30.16 "Hg12 mi
10:00 PM57 °FClear.2 mph67%30.15 "Hg16 mi
9:00 PM57 °FClear.2 mph66%30.15 "Hg14 mi
8:00 PM59 °FPassing clouds.2 mph64%30.15 "Hg16 mi
5:00 PM70 °FPassing clouds.5 mph42%30.11 "Hg22 mi
4:00 PM72 °FPassing clouds.6 mph41%30.11 "Hg22 mi
Weather by CustomWeather, © 2014

See weather overviewHow to use our weather pages